This is the latest recevied weather packets stored in our database for station/object WC4PEM-14. If no packets are shown the sender has not sent any weather packets the latest 1 day(s).
| Time | Temp. | Humidity | Pressure | Rain* | Wind** | Luminosity | Snow |
|---|---|---|---|---|---|---|---|
| 1836274650 | 25.56° C | 82% | 1015.7 hPa | 0 mm | 0.45 m/s, 9° | - | - |
| 1836274500 | 25° C | 83% | 1015.7 hPa | 0 mm | 0.45 m/s, 34° | - | - |
| 1836274350 | 25.56° C | 82% | 1015.7 hPa | 0 mm | 0.45 m/s, 9° | - | - |
| 1836274200 | 25.56° C | 82% | 1015.7 hPa | 0 mm | 0.45 m/s, 309° | - | - |
| 1836274050 | 25.56° C | 81% | 1015.7 hPa | 0 mm | 0 m/s | - | - |
| 1836273884 | 25.56° C | 81% | 1015.8 hPa | 0 mm | 0 m/s | - | - |
| 1778046784 | 21.11° C | 77% | 1015.9 hPa | 0 mm | 0.45 m/s, 142° | - | - |
| 1778046484 | 21.11° C | 77% | 1015.8 hPa | 0 mm | 0.45 m/s, 137° | - | - |
| 1778046184 | 21.11° C | 76% | 1015.9 hPa | 0 mm | 0.45 m/s, 93° | - | - |
| 1778045884 | 21.11° C | 76% | 1015.9 hPa | 0 mm | 0.45 m/s, 119° | - | - |
| 1778045760 | 21.11° C | 76% | 1015.9 hPa | 0 mm | 0.45 m/s, 93° | - | - |
| 1778045584 | 21.11° C | 76% | 1015.9 hPa | 0 mm | 0.45 m/s, 93° | - | - |
| 1778045284 | 21.11° C | 76% | 1015.9 hPa | 0 mm | 0.45 m/s, 93° | - | - |
| 1778045152 | 21.11° C | 76% | 1016 hPa | 0 mm | 0.45 m/s, 93° | - | - |
| 1778045072 | 21.11° C | 76% | 1015.9 hPa | 0 mm | 0.45 m/s, 93° | - | - |
| 1778044984 | 21.11° C | 76% | 1016 hPa | 0 mm | 0.45 m/s, 93° | - | - |
| 1778044970 | 21.11° C | 76% | 1015.9 hPa | 0 mm | 0.45 m/s, 93° | - | - |
| 1778044684 | 21.11° C | 76% | 1015.9 hPa | 0 mm | 0.45 m/s, 93° | - | - |
| 1778044384 | 21.11° C | 75% | 1016 hPa | 0 mm | 0.45 m/s, 107° | - | - |
| 1778044084 | 21.11° C | 75% | 1016 hPa | 0 mm | 0.45 m/s, 111° | - | - |
| 1778043784 | 21.11° C | 75% | 1016.1 hPa | 0 mm | 0.89 m/s, 119° | - | - |
| 1778043493 | 21.67° C | 74% | 1016.3 hPa | 0 mm | 1.34 m/s, 80° | - | - |
| 1778043484 | 21.67° C | 75% | 1016.2 hPa | 0 mm | 0.45 m/s, 93° | - | - |
| 1778043330 | 21.67° C | 74% | 1016.2 hPa | 0 mm | 1.34 m/s, 93° | - | - |
| 1778043184 | 21.67° C | 75% | 1016.3 hPa | 0 mm | 0.89 m/s, 93° | - | - |
* Rain latest hour (hover to see other rain measurements)
** Current wind speed in m/s (hover to see current wind gust speed)